Regional Weather Roundup
Issued by NWS Little Rock, AR

Home | Current Version | Previous Version | Text Only | Print | Product List | Glossary Off
Versions: 1 2 3 4 5 6 7 8 9 10 11 12 13 14 15 16 17 18 19 20 21 22 23 24 25 26 27

000
ASUS44 KLZK 251105
RWRLZK

WEATHER ROUNDUP FOR ARKANSAS
NATIONAL WEATHER SERVICE LITTLE ROCK AR
600 AM CDT THU AUG 25 2016

NOTE: "FAIR" INDICATES FEW OR NO CLOUDS BELOW 12,000 FEET WITH NO
SIGNIFICANT WEATHER AND/OR OBSTRUCTIONS TO VISIBILITY.

ARZ001-003-010-029-251200-
NORTHWEST ARKANSAS

CITY           SKY/WX    TMP DP  RH WIND       PRES   REMARKS
FAYETTEVILLE   CLEAR     66  66 100 CALM      30.09F
FORT SMITH     PTCLDY    73  69  87 E5        30.07R
HARRISON       CLEAR     70  68  93 S6        30.12S
BENTONVILLE    CLEAR     70  63  78 CALM      30.10R
ROGERS         CLEAR     69  67  93 CALM      30.11R
SILOAM SPGS    CLEAR     70  61  73 CALM      30.10S
HIGHFILL       CLEAR     67  66  97 CALM      30.09S
SPRINGDALE     CLEAR     72  68  88 S5        30.11
$$

ARZ004-005-016-251200-
NORTH CENTRAL ARKANSAS

CITY           SKY/WX    TMP DP  RH WIND       PRES   REMARKS
BATESVILLE     CLEAR     73  72  94 CALM      30.10R
FLIPPIN        CLEAR     68  64  88 CALM      30.08S
MTN HOME       CLEAR     69  68  96 CALM      30.10S
$$

ARZ040-041-251200-
WEST CENTRAL ARKANSAS

CITY           SKY/WX    TMP DP  RH WIND       PRES   REMARKS
MENA           PTCLDY    75  73  94 CALM      30.11R
MOUNT IDA      PTCLDY    72  71  97 CALM      30.08  FOG
$$

ARZ009-017-025-026-028-251200-
NORTHEAST ARKANSAS

CITY           SKY/WX    TMP DP  RH WIND       PRES   REMARKS
CORNING          N/A     73  73 100 CALM      30.09S
JONESBORO      CLEAR     73  71  93 CALM      30.09R
NEWPORT        CLEAR     72  72 100 NE3       30.09R FOG
WALNUT RIDGE   CLEAR     73  72  94 S3        30.08S
BLYTHEVILLE    CLEAR     75  73  93 CALM      30.10R
$$

ARZ022-023-033-042-044-251200-
CENTRAL ARKANSAS

CITY           SKY/WX    TMP DP  RH WIND       PRES   REMARKS
LITTLE ROCK    PTCLDY    77  73  87 SE5       30.08R
N LITTLE ROCK    N/A     76  73  89 CALM      30.05R
JACKSONVILLE   CLEAR     74  74 100 CALM      30.08R
SEARCY         CLEAR     73  73 100 CALM      30.10R
HOT SPRINGS    PTCLDY    75  72  90 CALM      30.10R
RUSSELLVILLE   CLEAR     72  72 100 CALM      30.08R
$$

ARZ036-251200-
EAST ARKANSAS

CITY           SKY/WX    TMP DP  RH WIND       PRES   REMARKS
WEST MEMPHIS   CLEAR     76  75  97 CALM      30.09R
$$

ARZ050-053-066-070-073-251200-
SOUTHWEST ARKANSAS

CITY           SKY/WX    TMP DP  RH WIND       PRES   REMARKS
ARKADELPHIA    FAIR      75  74  96 CALM      30.08R
CAMDEN         MOCLDY    73  72  94 CALM      30.07S FOG
TEXARKANA      PTCLDY    75  74  96 CALM      30.08R
EL DORADO      PTCLDY    75  74  96 CALM      30.08R
DE QUEEN       CLEAR     72  72 100 E5        30.05S FOG
$$

ARZ056-057-069-251200-
SOUTHEAST ARKANSAS

CITY           SKY/WX    TMP DP  RH WIND       PRES   REMARKS
PINE BLUFF     CLEAR     75  74  96 CALM      30.09R FOG
STUTTGART      PTCLDY    77  72  83 SE5       30.09S
MONTICELLO     CLEAR     78  74  87 CALM      30.09R

$$






USA.gov is the U.S. government's official web portal to all federal, state and local government web resources and services.